Temp
-16 -16 -16 -16 -16 -15 -15 -15 -16 -15 -15 -15 -16 -16 -17 -17 -17 -17 -17 -17 -18 -17 -17 -17 -17 -17 -17 -17 -17 -17 -18 -18 -18 -19 -19 -20 -20 -20 -21 -22 -22 -23 -23
-15 -15 -15 -15 -15 -15 -15 -15 -15 -15 -15 -15 -16 -17 -17 -17 -17 -17 -18 -18 -17 -17 -17 -17 -17 -17 -17 -17 -17 -18 -18 -18 -18 -18 -19 -20 -20 -21 -21 -22 -22 -22 -22
-16 -15 -15 -15 -15 -15 -14 -14 -15 -16 -16 -16 -17 -17 -17 -17 -18 -18 -18 -18 -17 -18 -17 -17 -17 -17 -17 -17 -18 -18 -18 -18 -19 -19 -19 -20 -20 -21 -22 -22 -23 -23 -23
-15 -15 -15 -15 -15 -16 -16 -16 -15 -16 -16 -17 -17 -17 -17 -17 -18 -18 -18 -18 -18 -18 -18 -18 -17 -18 -17 -18 -18 -18 -18 -19 -19 -19 -19 -20 -20 -22 -22 -22 -22 -23 -23
-15 -15 -15 -16 -15 -15 -15 -16 -16 -16 -17 -16 -17 -17 -18 -18 -18 -18 -18 -18 -18 -18 -18 -18 -18 -18 -18 -18 -18 -19 -19 -19 -19 -20 -20 -20 -21 -22 -22 -22 -23 -23 -24
-15 -15 -15 -15 -15 -15 -15 -16 -16 -17 -17 -17 -17 -18 -18 -18 -18 -18 -18 -18 -18 -18 -18 -18 -18 -18 -18 -18 -19 -19 -19 -20 -20 -20 -21 -21 -21 -22 -22 -22 -23 -23 -24
-15 -15 -15 -15 -15 -15 -15 -16 -16 -16 -16 -17 -17 -18 -18 -18 -18 -18 -18 -18 -18 -18 -18 -18 -18 -18 -18 -19 -19 -19 -20 -21 -21 -21 -21 -22 -22 -23 -23 -23 -24 -25 -26
-15 -15 -15 -15 -15 -15 -16 -16 -16 -16 -17 -18 -18 -18 -18 -18 -18 -18 -18 -18 -18 -18 -18 -19 -19 -19 -19 -19 -20 -20 -21 -21 -22 -22 -22 -23 -23 -23 -24 -24 -25 -26 -27
-16 -16 -16 -16 -16 -16 -16 -16 -16 -17 -17 -17 -17 -18 -18 -18 -18 -18 -18 -18 -18 -19 -19 -19 -19 -19 -20 -20 -20 -20 -21 -21 -22 -22 -23 -23 -24 -24 -25 -25 -26 -27 -29
-16 -16 -16 -16 -16 -16 -16 -16 -17 -17 -17 -17 -18 -18 -18 -18 -18 -18 -19 -19 -19 -19 -19 -19 -19 -20 -20 -20 -21 -21 -21 -22 -22 -22 -23 -24 -24 -25 -26 -27 -28 -29 -30
-16 -16 -16 -16 -16 -16 -16 -17 -17 -17 -17 -17 -18 -18 -18 -19 -19 -19 -19 -19 -19 -20 -20 -20 -20 -21 -21 -21 -21 -21 -21 -22 -22 -23 -23 -23 -24 -25 -26 -27 -29 -30 -31
-16 -16 -16 -16 -16 -17 -17 -17 -17 -17 -18 -18 -18 -18 -18 -19 -19 -19 -19 -20 -20 -20 -20 -21 -21 -21 -21 -22 -22 -22 -22 -23 -23 -23 -24 -24 -25 -26 -27 -29 -30 -31 -32
-17 -17 -17 -17 -17 -17 -18 -18 -18 -18 -18 -18 -18 -19 -19 -19 -19 -19 -20 -20 -20 -20 -20 -21 -22 -22 -22 -22 -23 -23 -23 -23 -24 -24 -25 -25 -26 -28 -29 -30 -31 -32 -33
-17 -17 -17 -17 -17 -18 -18 -18 -18 -18 -18 -18 -19 -19 -19 -19 -19 -20 -20 -20 -20 -21 -22 -22 -22 -22 -23 -23 -23 -24 -24 -24 -25 -25 -26 -27 -28 -29 -30 -32 -32 -33 -34
-17 -18 -18 -18 -18 -18 -18 -18 -18 -19 -19 -19 -19 -19 -19 -20 -20 -20 -21 -21 -21 -22 -22 -22 -23 -23 -23 -23 -24 -25 -25 -25 -26 -27 -28 -29 -30 -31 -32 -33 -34 -35 -35
-18 -18 -18 -18 -18 -18 -18 -18 -19 -19 -19 -19 -19 -19 -20 -20 -21 -21 -21 -21 -21 -22 -22 -23 -23 -23 -24 -24 -24 -25 -26 -26 -27 -29 -30 -30 -31 -32 -33 -34 -35 -36 -36
-18 -19 -19 -19 -19 -19 -19 -19 -18 -19 -19 -19 -20 -20 -21 -21 -21 -21 -21 -22 -22 -23 -23 -23 -24 -24 -24 -25 -25 -26 -27 -28 -29 -30 -31 -31 -32 -33 -34 -35 -36 -38 -38
-18 -19 -19 -19 -19 -19 -19 -19 -20 -20 -20 -20 -20 -21 -21 -22 -22 -22 -22 -22 -23 -23 -24 -24 -25 -25 -25 -26 -27 -27 -29 -30 -30 -31 -32 -32 -33 -34 -36 -36 -37 -38 -38
-18 -19 -19 -19 -19 -19 -20 -20 -20 -20 -21 -21 -21 -22 -22 -22 -22 -23 -23 -24 -24 -25 -25 -25 -25 -26 -26 -27 -28 -30 -30 -31 -31 -32 -32 -33 -34 -35 -37 -37 -38 -38 -39
-19 -19 -19 -19 -19 -19 -20 -20 -20 -20 -21 -21 -22 -22 -23 -23 -23 -23 -24 -24 -25 -25 -25 -25 -26 -27 -28 -29 -30 -31 -31 -32 -32 -33 -33 -35 -36 -37 -37 -38 -38 -39 -40
-19 -19 -19 -20 -20 -20 -20 -20 -21 -21 -22 -22 -23 -23 -23 -23 -24 -24 -25 -25 -25 -25 -26 -26 -28 -29 -30 -31 -31 -32 -32 -33 -33 -34 -35 -36 -37 -38 -38 -38 -38 -39 -40
-20 -20 -20 -20 -20 -21 -21 -22 -22 -22 -23 -23 -23 -23 -24 -24 -25 -24 -25 -25 -26 -26 -27 -28 -30 -31 -31 -32 -32 -33 -33 -34 -35 -36 -37 -38 -38 -38 -38 -38 -38 -39 -40
-20 -20 -21 -21 -21 -21 -22 -22 -23 -23 -23 -23 -24 -24 -24 -24 -25 -25 -26 -26 -27 -28 -30 -31 -31 -32 -32 -33 -33 -34 -34 -35 -37 -37 -38 -39 -39 -39 -39 -39 -39 -40 -41
-21 -21 -21 -22 -22 -23 -23 -23 -24 -24 -24 -24 -24 -25 -25 -25 -26 -26 -27 -28 -30 -30 -31 -32 -32 -33 -33 -34 -35 -36 -36 -37 -38 -39 -39 -39 -39 -39 -39 -39 -39 -40 -41
-22 -22 -22 -23 -23 -23 -24 -24 -24 -24 -25 -25 -25 -25 -26 -26 -27 -28 -29 -30 -31 -32 -32 -33 -33 -34 -35 -36 -37 -38 -38 -39 -39 -39 -39 -39 -39 -39 -39 -39 -39 -40 -41
-23 -23 -23 -24 -24 -24 -25 -25 -25 -25 -25 -25 -26 -27 -28 -29 -30 -31 -31 -31 -32 -32 -33 -34 -35 -36 -37 -38 -39 -39 -39 -39 -39 -39 -39 -39 -39 -39 -39 -39 -39 -40 -41
Height
5722 5722 5720 5719 5719 5719 5718 5718 5716 5714 5710 5710 5711 5709 5708 5709 5706 5705 5703 5700 5698 5695 5693 5689 5686 5682 5678 5674 5669 5664 5659 5653 5648 5642 5633 5624 5616 5606 5597 5588 5580 5571 5562
5716 5714 5712 5713 5711 5709 5708 5704 5705 5700 5707 5706 5701 5700 5700 5699 5698 5696 5693 5690 5688 5685 5681 5678 5674 5671 5666 5661 5657 5651 5644 5637 5632 5627 5619 5609 5600 5590 5583 5574 5564 5554 5545
5707 5702 5702 5704 5701 5698 5685 5687 5700 5696 5699 5697 5694 5692 5692 5692 5690 5687 5683 5680 5677 5674 5671 5667 5662 5657 5652 5648 5641 5634 5628 5621 5614 5609 5603 5595 5585 5573 5564 5556 5547 5536 5524
5700 5700 5698 5698 5697 5692 5694 5693 5693 5692 5692 5691 5688 5687 5685 5683 5679 5674 5671 5669 5666 5662 5658 5654 5649 5645 5639 5633 5626 5620 5612 5606 5599 5592 5586 5578 5569 5559 5547 5538 5531 5517 5507
5695 5695 5696 5696 5694 5690 5689 5685 5684 5685 5682 5679 5676 5675 5672 5669 5666 5664 5661 5657 5653 5649 5645 5641 5636 5629 5624 5618 5612 5605 5597 5590 5583 5575 5569 5562 5553 5543 5530 5520 5508 5496 5488
5689 5688 5689 5688 5685 5683 5681 5677 5676 5673 5672 5670 5667 5664 5661 5659 5657 5654 5650 5646 5642 5637 5632 5627 5622 5617 5610 5603 5597 5589 5581 5574 5566 5559 5552 5544 5535 5522 5514 5503 5491 5477 5467
5682 5683 5682 5680 5678 5676 5673 5671 5669 5666 5663 5660 5658 5655 5652 5650 5645 5640 5636 5632 5628 5623 5619 5614 5609 5603 5596 5589 5580 5572 5563 5554 5548 5541 5533 5523 5515 5501 5491 5483 5469 5455 5442
5675 5673 5671 5668 5665 5663 5661 5660 5658 5655 5652 5649 5647 5643 5639 5634 5631 5627 5623 5619 5615 5610 5606 5601 5594 5588 5581 5574 5566 5557 5548 5536 5528 5520 5512 5503 5491 5479 5464 5454 5443 5431 5420
5667 5665 5663 5661 5658 5655 5653 5650 5647 5644 5642 5639 5635 5631 5627 5624 5620 5616 5612 5607 5602 5597 5592 5586 5579 5571 5564 5558 5552 5544 5535 5524 5513 5504 5494 5484 5473 5458 5441 5431 5420 5405 5400
5656 5654 5652 5649 5647 5645 5643 5640 5637 5635 5631 5627 5623 5620 5616 5613 5608 5604 5598 5593 5589 5583 5576 5568 5561 5555 5547 5540 5533 5526 5519 5510 5500 5489 5478 5466 5453 5441 5423 5405 5396 5385 5375
5647 5645 5642 5639 5637 5634 5632 5630 5627 5623 5619 5615 5612 5609 5605 5600 5595 5591 5586 5580 5573 5566 5559 5552 5545 5537 5529 5522 5514 5506 5498 5490 5481 5471 5462 5451 5437 5423 5407 5393 5378 5364 5355
5638 5636 5633 5630 5627 5623 5621 5617 5614 5610 5606 5602 5599 5595 5591 5586 5581 5575 5570 5564 5557 5550 5541 5534 5526 5518 5509 5501 5492 5484 5475 5466 5458 5449 5439 5428 5416 5403 5388 5374 5360 5349 5339
5626 5624 5621 5618 5615 5611 5608 5604 5600 5596 5593 5590 5586 5581 5576 5570 5565 5559 5553 5547 5539 5531 5523 5515 5507 5498 5489 5479 5471 5462 5452 5442 5433 5424 5414 5403 5390 5378 5365 5352 5342 5332 5325
5616 5613 5610 5607 5603 5600 5596 5592 5588 5584 5580 5576 5571 5566 5560 5554 5548 5542 5535 5528 5520 5512 5504 5496 5488 5480 5471 5461 5451 5440 5429 5419 5408 5397 5387 5376 5365 5355 5344 5331 5324 5316 5310
5603 5600 5597 5593 5589 5586 5582 5578 5574 5569 5563 5558 5553 5548 5542 5537 5530 5523 5515 5508 5500 5493 5484 5476 5467 5459 5449 5439 5429 5418 5407 5395 5383 5371 5360 5350 5340 5332 5323 5313 5306 5299 5294
5588 5585 5581 5577 5574 5570 5566 5562 5558 5553 5547 5540 5535 5530 5523 5517 5510 5503 5495 5488 5481 5472 5464 5456 5447 5438 5429 5419 5409 5399 5386 5374 5362 5351 5339 5328 5319 5311 5306 5297 5290 5286 5283
5573 5569 5565 5561 5557 5553 5549 5545 5540 5534 5529 5522 5516 5509 5502 5496 5489 5483 5475 5467 5458 5451 5442 5434 5425 5417 5407 5397 5387 5376 5364 5352 5340 5329 5319 5310 5301 5291 5286 5283 5277 5271 5273
5557 5554 5549 5545 5541 5536 5531 5526 5521 5515 5509 5503 5496 5489 5482 5474 5467 5459 5452 5444 5437 5427 5419 5410 5401 5392 5382 5372 5360 5349 5338 5327 5317 5307 5297 5290 5282 5275 5268 5266 5266 5262 5260
5539 5535 5531 5527 5522 5517 5512 5507 5501 5494 5488 5481 5475 5468 5462 5454 5446 5438 5430 5422 5414 5405 5396 5386 5376 5365 5355 5344 5333 5323 5313 5303 5294 5286 5277 5269 5262 5258 5254 5250 5249 5250 5252
5522 5517 5512 5507 5502 5497 5492 5487 5481 5474 5467 5460 5453 5447 5440 5433 5425 5417 5408 5399 5390 5381 5372 5360 5348 5338 5327 5317 5308 5299 5290 5281 5272 5263 5255 5249 5243 5239 5237 5236 5235 5237 5239
5504 5500 5495 5490 5484 5478 5473 5466 5459 5452 5446 5440 5433 5426 5420 5412 5404 5395 5386 5377 5367 5355 5343 5332 5321 5310 5300 5292 5284 5276 5267 5258 5249 5242 5235 5230 5226 5223 5221 5222 5222 5224 5228
5488 5483 5477 5472 5466 5459 5452 5447 5441 5434 5427 5420 5413 5405 5397 5389 5380 5371 5360 5349 5337 5325 5314 5304 5294 5285 5276 5267 5260 5252 5244 5236 5227 5221 5216 5213 5211 5208 5208 5209 5211 5214 5218
5470 5465 5459 5454 5448 5442 5436 5429 5423 5416 5408 5400 5391 5382 5372 5362 5352 5341 5331 5319 5307 5296 5285 5275 5268 5260 5250 5242 5234 5228 5222 5215 5208 5204 5201 5198 5197 5196 5196 5198 5201 5204 5210
5453 5447 5442 5436 5430 5423 5416 5409 5402 5394 5385 5376 5365 5355 5344 5333 5321 5310 5299 5289 5278 5267 5258 5249 5241 5234 5227 5218 5210 5204 5199 5195 5192 5189 5187 5186 5185 5185 5187 5188 5191 5196 5202
5435 5429 5423 5417 5410 5403 5395 5387 5378 5368 5359 5349 5338 5326 5314 5302 5291 5280 5270 5260 5250 5241 5232 5222 5215 5208 5201 5195 5189 5185 5181 5178 5177 5176 5175 5175 5175 5176 5178 5181 5183 5187 5194
5417 5410 5403 5396 5388 5380 5371 5362 5353 5342 5332 5320 5308 5295 5283 5272 5261 5251 5242 5232 5223 5213 5204 5196 5189 5184 5179 5175 5172 5169 5167 5165 5164 5164 5164 5164 5165 5167 5170 5173 5176 5180 5187
Wind_Speed
20 22 25 26 28 29 30 29 33 33 41 32 29 27 27 26 30 32 33 35 35 36 37 37 38 40 43 45 49 53 58 58 57 58 60 61 63 63 65 68 71 74 78
25 28 32 33 34 35 35 32 33 28 35 41 29 29 28 28 30 34 36 36 37 38 39 41 41 43 46 49 53 57 56 58 60 61 61 62 64 67 68 72 75 80 83
30 24 21 26 32 26 33 27 25 34 34 35 32 28 30 32 36 36 38 38 40 39 41 42 44 47 51 55 58 57 60 63 63 62 63 65 67 69 72 74 78 83 87
23 22 22 27 29 29 29 28 30 34 35 34 32 33 36 38 39 40 42 41 41 42 43 45 48 52 56 60 61 61 61 64 65 66 68 68 70 71 76 80 83 87 92
25 25 23 28 31 31 34 33 35 36 37 40 40 40 40 41 41 43 44 42 43 44 46 50 53 58 60 63 63 64 65 67 68 69 70 71 72 75 79 83 87 93 96
26 26 27 28 30 32 35 36 39 39 39 41 43 43 44 42 43 43 42 43 45 48 51 54 58 61 63 65 64 66 68 70 70 71 72 75 77 80 82 86 92 97 99
28 27 29 31 33 35 36 38 39 40 41 42 43 43 43 43 43 44 45 47 51 54 56 59 61 65 67 66 67 70 71 72 74 74 75 79 80 83 87 90 95 98 94
29 31 33 36 38 39 40 42 42 42 42 42 43 43 43 44 45 47 49 52 55 57 59 61 65 68 68 67 69 71 73 74 76 76 79 81 84 87 92 96 98 96 91
30 32 33 34 36 39 41 42 42 43 44 46 45 45 46 47 49 51 53 56 58 60 63 66 70 69 70 71 70 71 73 74 77 79 82 85 88 92 96 99 96 94 88
33 34 35 36 37 39 40 41 43 45 47 48 47 47 49 51 52 54 56 58 61 65 68 71 71 72 74 73 72 73 74 76 80 83 84 88 92 95 98 99 94 91 84
36 37 39 40 41 40 40 42 45 47 48 48 49 50 52 54 55 57 58 61 65 67 70 72 72 71 71 72 74 77 80 82 84 86 89 92 96 99 99 95 91 85 72
38 40 40 40 39 39 41 43 44 46 47 47 48 50 53 55 57 58 62 64 65 68 71 72 74 75 75 76 78 80 83 86 88 90 93 95 97 98 94 89 83 72 63
40 42 42 41 41 42 44 45 47 48 49 50 52 53 55 56 59 63 66 67 69 71 73 74 77 78 78 78 81 83 86 88 91 95 97 99 98 94 89 82 73 63 56
42 41 40 41 43 45 47 48 52 52 52 55 57 58 59 61 64 66 68 69 72 76 78 79 79 80 80 84 85 85 88 92 96 99 100 98 93 88 80 73 65 57 51
42 43 44 46 47 49 51 54 55 55 57 59 61 64 65 64 64 67 70 74 78 80 82 81 81 82 84 85 85 89 93 96 99 99 96 92 87 80 72 65 58 52 46
47 47 47 48 49 51 54 56 57 59 61 63 61 60 64 69 74 76 78 81 83 84 82 81 81 83 84 86 90 94 97 98 97 94 90 85 79 72 66 59 51 45 31
51 50 50 52 55 58 59 61 60 61 70 70 70 72 76 79 81 84 85 85 83 81 80 82 83 84 87 91 95 97 97 96 93 88 83 77 71 68 62 53 44 34 25
55 50 55 56 54 58 62 64 65 76 75 77 79 79 80 82 83 84 83 82 81 81 82 83 85 89 93 96 96 96 94 91 86 80 76 73 69 62 55 47 38 35 34
59 58 61 61 61 63 66 69 72 79 77 78 79 79 81 82 82 81 80 80 80 81 83 87 92 95 97 97 96 93 89 84 80 77 74 71 65 56 47 42 38 33 36
58 58 59 60 63 67 70 71 75 81 78 75 76 77 79 79 79 80 81 82 84 87 92 98 98 97 97 95 91 86 82 80 77 75 71 65 56 48 41 37 35 34 37
58 60 63 66 69 72 75 78 78 73 71 71 73 75 77 79 81 83 85 89 94 98 98 97 97 96 93 89 85 82 80 78 75 71 64 54 46 40 37 33 31 33 37
62 64 67 69 70 69 67 65 66 68 70 72 75 78 81 83 87 91 93 95 96 97 98 96 94 90 87 85 83 81 77 74 69 62 52 44 39 35 32 29 27 30 31
62 61 60 60 62 64 66 68 70 72 75 78 80 84 88 91 92 94 97 98 98 96 93 91 89 86 85 84 81 77 71 65 57 48 41 37 33 30 28 26 26 24 25
62 62 62 63 64 66 68 71 74 77 81 84 87 88 91 95 97 98 98 96 93 91 90 89 87 86 83 80 74 67 60 52 44 39 34 30 28 26 24 24 26 31 34
61 62 64 67 69 72 75 78 81 83 86 89 93 96 98 98 97 96 93 91 90 90 90 89 87 82 75 67 59 53 46 41 36 31 27 26 25 23 21 21 23 31 30
65 67 69 72 75 78 80 83 86 89 93 96 97 96 95 93 92 91 91 91 90 89 86 83 77 69 59 51 45 41 37 33 29 27 24 23 23 23 22 23 21 28 30
Wind_Direction
265 269 265 262 261 263 267 268 271 274 274 283 264 291 293 291 295 293 296 295 299 299 296 297 296 299 300 299 301 304 305 307 309 309 307 306 305 305 305 306 306 306 308
271 271 267 268 265 264 260 259 284 254 268 276 298 305 294 293 293 296 298 298 296 296 298 298 297 298 300 303 303 305 309 309 310 311 308 306 307 306 307 306 308 308 309
291 281 281 321 269 298 265 261 283 300 303 303 303 295 293 295 295 294 295 296 296 294 293 296 299 301 302 302 307 311 311 311 309 311 310 308 308 306 306 308 307 308 310
291 295 294 295 295 299 298 295 294 298 299 295 294 293 294 295 295 296 297 294 290 294 296 296 300 301 302 307 309 308 309 309 308 309 309 308 308 306 305 306 308 310 310
285 288 288 288 292 297 296 301 300 294 294 296 294 292 295 296 293 291 290 292 295 297 297 299 301 304 307 307 307 308 309 309 307 308 307 307 307 306 306 308 309 310 311
284 290 289 289 292 293 295 299 296 295 293 289 290 292 294 291 290 289 290 292 295 297 299 300 302 304 306 306 306 306 306 307 307 306 308 308 307 307 306 307 309 310 310
286 285 287 289 291 292 292 290 289 289 288 289 290 290 288 289 291 293 295 297 299 299 299 300 302 304 306 305 305 306 307 307 307 308 308 308 307 307 308 308 309 310 311
282 287 291 293 295 297 296 295 295 294 294 292 290 290 292 293 294 294 296 297 297 297 298 300 303 304 303 304 306 307 307 308 308 308 308 308 309 309 309 310 311 310 309
280 284 286 289 291 292 291 291 292 293 292 290 289 290 290 292 293 294 294 295 296 297 299 300 302 303 303 303 303 304 305 306 306 307 308 309 309 310 310 311 311 309 308
282 282 285 286 288 290 291 291 291 290 290 290 288 288 291 293 292 292 293 295 297 299 301 302 303 302 301 301 303 303 305 306 306 307 308 308 309 310 310 310 310 308 308
282 284 284 285 287 286 286 287 287 287 288 288 288 290 291 292 292 294 296 297 299 301 302 301 302 300 300 301 303 305 307 307 306 306 306 307 308 308 308 308 308 307 306
278 279 282 283 283 281 283 283 284 285 285 285 287 288 289 290 291 293 296 297 297 299 299 302 301 299 300 302 303 305 306 306 306 306 307 307 307 307 308 308 307 307 303
279 281 286 284 281 280 282 282 283 284 286 287 287 287 288 288 290 291 293 293 294 297 300 301 298 296 299 300 303 305 305 306 306 307 307 307 307 308 308 307 306 305 301
280 284 285 285 283 283 282 282 283 285 285 285 286 287 288 288 290 293 294 294 296 301 302 299 294 294 297 300 302 305 305 306 307 307 306 306 308 308 308 307 307 304 301
282 284 284 286 286 284 283 284 286 287 286 286 288 290 291 293 294 294 295 297 298 298 297 295 295 296 298 301 304 304 305 306 306 305 306 307 308 308 307 306 306 303 302
284 285 285 287 287 288 289 288 290 291 291 290 291 295 297 295 293 293 293 294 295 295 294 295 296 297 300 302 303 303 304 304 304 305 306 307 307 306 306 305 303 299 291
283 284 284 286 288 290 291 290 287 289 293 294 294 290 289 290 291 292 293 294 294 294 294 295 296 298 301 301 301 303 303 302 303 305 305 306 305 305 304 302 299 286 269
283 283 280 284 281 286 287 289 286 291 286 287 287 288 289 290 292 293 293 293 294 295 295 297 299 300 300 302 302 301 301 304 305 305 305 305 304 303 299 296 287 263 258
277 279 280 283 285 286 285 286 285 289 287 287 287 288 288 289 290 291 292 293 294 295 297 299 299 301 302 301 300 302 303 303 303 304 305 303 302 300 294 286 279 264 247
286 286 286 287 286 286 286 288 287 288 288 287 286 286 287 289 290 291 293 294 296 297 298 300 301 300 299 300 302 302 302 302 303 303 302 302 299 294 286 278 269 258 250
290 290 290 290 290 290 290 288 288 287 287 287 288 289 290 291 293 294 295 295 296 298 298 298 298 298 299 300 300 301 301 302 302 301 300 298 293 287 281 272 259 249 245
290 290 289 289 289 290 290 290 291 291 291 292 292 293 294 295 294 294 296 297 296 296 297 297 298 299 299 299 300 301 301 301 299 299 297 293 287 282 275 265 253 239 239
291 292 292 293 293 293 293 293 293 293 293 293 293 292 293 296 298 297 297 297 296 297 297 297 298 299 298 298 299 299 299 297 298 295 292 287 281 274 267 256 245 225 226
291 292 292 292 292 291 291 292 292 292 292 295 297 298 298 298 297 297 297 297 297 297 298 298 297 297 297 297 297 297 296 296 294 291 286 280 275 268 257 248 236 222 221
290 290 290 290 291 291 292 293 296 298 298 299 299 298 298 297 296 297 298 298 298 297 296 296 296 296 296 296 294 294 294 292 290 286 279 274 267 258 242 236 236 225 218
289 290 290 292 294 296 297 298 298 299 299 299 298 298 297 298 298 298 297 296 296 295 295 294 295 295 293 292 293 292 291 289 285 280 274 266 257 247 236 235 234 210 208